Location: Bo?a Wola
(50.4192°N, 19.7966°E)
Time: 02:38:48
(UTC+00:00)

GEOS 3 Rocket - Pass Details

Date: 26 September 2024
Orbit: 790 x 825 km, 115.0° (Epoch: 14 October)

Event Time Altitude Azimuth Distance (km) Brightness Sun altitude
Exits shadow 17:12:23 - 77° (ENE) 2,593 5.6 -7.7°
Reaches altitude 10° 17:13:01 10° 73° (ENE) 2,389 5.5 -7.8°
Maximum altitude 17:17:04 24° 21° (NNE) 1,616 5.1 -8.4°
Drops below altitude 10° 17:21:06 10° 329° (NNW) 2,378 6.6 -9.1°
Sets 17:23:45 0° 316° (NW) 3,306 7.7 -9.5°
